| time (UTC) | temp F | wind direction | speed knots | gust knots | rain 1hr in | rain 24hr in | rain mn in | humidity % | barometer mb |
| 20260902025923 | 62 | 306 | 1.7 | 3.5 | 0.00 | 0.00 | 0.00 | 83 | 1010.8 |
| 20260902025423 | 62 | 306 | 1.7 | 4.3 | 0.00 | 0.00 | 0.00 | 82 | 1010.7 |
| 20260902024920 | 62 | 308 | 2.6 | 6.1 | 0.00 | 0.00 | 0.00 | 82 | 1010.7 |
| 20260902024417 | 62 | 309 | 1.7 | 6.1 | 0.00 | 0.00 | 0.00 | 82 | 1010.7 |
| 20260902023915 | 62 | 317 | 1.7 | 4.3 | 0.00 | 0.00 | 0.00 | 82 | 1010.7 |
| 20260902023411 | 62 | 317 | 1.7 | 6.1 | 0.00 | 0.00 | 0.00 | 82 | 1010.7 |
| 20260902022910 | 62 | 320 | 2.6 | 6.1 | 0.00 | 0.00 | 0.00 | 81 | 1010.7 |
| 20260902022410 | 63 | 296 | 2.6 | 6.1 | 0.00 | 0.00 | 0.00 | 80 | 1010.7 |
| 20260902021908 | 63 | 319 | 2.6 | 7.0 | 0.00 | 0.00 | 0.00 | 80 | 1010.7 |
| 20260902020909 | 63 | 274 | 3.5 | 9.6 | 0.00 | 0.00 | 0.00 | 77 | 1010.7 |
| 20260902020404 | 63 | 280 | 3.5 | 9.6 | 0.00 | 0.00 | 0.00 | 77 | 1010.7 |
| 20260902015904 | 63 | 265 | 3.5 | 9.6 | 0.00 | 0.00 | 0.00 | 75 | 1010.7 |
| 20260902014903 | 64 | 267 | 2.6 | 10.4 | 0.00 | 0.00 | 0.00 | 72 | 1010.6 |
| 20260902014359 | 65 | 305 | 2.6 | 7.0 | 0.00 | 0.00 | 0.00 | 70 | 1010.7 |
| 20260902013901 | 65 | 309 | 2.6 | 8.7 | 0.00 | 0.00 | 0.00 | 69 | 1010.7 |
| 20260902013400 | 65 | 308 | 2.6 | 8.7 | 0.00 | 0.00 | 0.00 | 69 | 1010.7 |
| 20260902012859 | 66 | 313 | 3.5 | 8.7 | 0.00 | 0.00 | 0.00 | 68 | 1010.7 |
| 20260902012359 | 67 | 313 | 3.5 | 6.1 | 0.00 | 0.00 | 0.00 | 66 | 1010.7 |
| 20260902011854 | 67 | 315 | 3.5 | 7.0 | 0.00 | 0.00 | 0.00 | 65 | 1010.7 |
| 20260902011355 | 68 | 306 | 3.5 | 7.0 | 0.00 | 0.00 | 0.00 | 64 | 1010.7 |
| 20260902010852 | 68 | 309 | 3.5 | 7.8 | 0.00 | 0.00 | 0.00 | 62 | 1010.7 |
| 20260902010349 | 68 | 306 | 3.5 | 7.8 | 0.00 | 0.00 | 0.00 | 63 | 1010.7 |
| 20260902005845 | 69 | 306 | 3.5 | 7.8 | 0.00 | 0.00 | 0.00 | 62 | 1010.7 |
| 20260902005345 | 69 | 324 | 3.5 | 9.6 | 0.00 | 0.00 | 0.00 | 61 | 1010.7 |
| 20260902004845 | 69 | 339 | 3.5 | 9.6 | 0.00 | 0.00 | 0.00 | 60 | 1010.7 |
| 20260902004344 | 69 | 321 | 3.5 | 7.8 | 0.00 | 0.00 | 0.00 | 60 | 1010.7 |
| 20260902003839 | 69 | 319 | 3.5 | 7.0 | 0.00 | 0.00 | 0.00 | 60 | 1010.7 |
| 20260902003340 | 70 | 348 | 3.5 | 11.3 | 0.00 | 0.00 | 0.00 | 60 | 1010.7 |
| 20260902002839 | 70 | 267 | 3.5 | 11.3 | 0.00 | 0.00 | 0.00 | 59 | 1010.7 |
| 20260902002338 | 70 | 325 | 4.3 | 10.4 | 0.00 | 0.00 | 0.00 | 58 | 1010.7 |
| 20260902001836 | 70 | 301 | 3.5 | 7.8 | 0.00 | 0.00 | 0.00 | 58 | 1010.7 |
| 20260902001339 | 71 | 340 | 3.5 | 8.7 | 0.00 | 0.00 | 0.00 | 57 | 1010.7 |
| 20260902000831 | 71 | 317 | 3.5 | 8.7 | 0.00 | 0.00 | 0.00 | 56 | 1010.7 |
| 20260902000329 | 71 | 315 | 3.5 | 7.8 | 0.00 | 0.00 | 0.00 | 55 | 1010.7 |
| 20260901235828 | 71 | 317 | 3.5 | 10.4 | 0.00 | 0.00 | 0.00 | 56 | 1010.7 |
| 20260901235327 | 70 | 324 | 4.3 | 10.4 | 0.00 | 0.00 | 0.00 | 57 | 1010.7 |
| 20260901234824 | 71 | 309 | 4.3 | 9.6 | 0.00 | 0.00 | 0.00 | 56 | 1010.7 |
| 20260901234323 | 71 | 315 | 4.3 | 9.6 | 0.00 | 0.00 | 0.00 | 56 | 1010.7 |
| 20260901233821 | 72 | 311 | 3.5 | 9.6 | 0.00 | 0.00 | 0.00 | 56 | 1010.7 |
| 20260901233321 | 72 | 317 | 3.5 | 9.6 | 0.00 | 0.00 | 0.00 | 56 | 1010.7 |
| 20260901232323 | 72 | 355 | 3.5 | 8.7 | 0.00 | 0.00 | 0.00 | 56 | 1010.7 |
| 20260901231818 | 71 | 331 | 4.3 | 8.7 | 0.00 | 0.00 | 0.00 | 56 | 1010.7 |
| 20260901231319 | 72 | 306 | 4.3 | 8.7 | 0.00 | 0.00 | 0.00 | 55 | 1010.7 |
| 20260901230814 | 72 | 334 | 3.5 | 8.7 | 0.00 | 0.00 | 0.00 | 54 | 1010.7 |
| 20260901230315 | 72 | 318 | 3.5 | 8.7 | 0.00 | 0.00 | 0.00 | 55 | 1010.7 |
| 20260901225815 | 72 | 322 | 4.3 | 9.6 | 0.00 | 0.00 | 0.00 | 54 | 1010.7 |
| 20260901225310 | 72 | 321 | 3.5 | 9.6 | 0.00 | 0.00 | 0.00 | 55 | 1010.7 |
| 20260901224809 | 73 | 311 | 3.5 | 8.7 | 0.00 | 0.00 | 0.00 | 54 | 1010.7 |
| 20260901224307 | 73 | 343 | 3.5 | 8.7 | 0.00 | 0.00 | 0.00 | 53 | 1010.9 |
| 20260901223259 | 73 | 323 | 3.5 | 8.7 | 0.00 | 0.00 | 0.00 | 55 | 1010.8 |
| 20260901222801 | 73 | 351 | 3.5 | 8.7 | 0.00 | 0.00 | 0.00 | 55 | 1011.0 |
| 20260901222301 | 72 | 348 | 3.5 | 7.8 | 0.00 | 0.00 | 0.00 | 56 | 1011.0 |
| 20260901221801 | 72 | 329 | 3.5 | 8.7 | 0.00 | 0.00 | 0.00 | 55 | 1011.0 |
| 20260901221259 | 72 | 295 | 4.3 | 8.7 | 0.00 | 0.00 | 0.00 | 55 | 1011.1 |
| 20260901220752 | 72 | 328 | 4.3 | 9.6 | 0.00 | 0.00 | 0.00 | 56 | 1011.1 |
| 20260901220253 | 72 | 312 | 4.3 | 9.6 | 0.00 | 0.00 | 0.00 | 55 | 1011.1 |
| 20260901215751 | 72 | 340 | 4.3 | 8.7 | 0.00 | 0.00 | 0.00 | 54 | 1011.2 |
| 20260901215250 | 72 | 312 | 4.3 | 8.7 | 0.00 | 0.00 | 0.00 | 54 | 1011.2 |
| 20260901214747 | 72 | 355 | 4.3 | 8.7 | 0.00 | 0.00 | 0.00 | 54 | 1011.2 |
| 20260901214246 | 72 | 280 | 4.3 | 8.7 | 0.00 | 0.00 | 0.00 | 54 | 1011.2 |
| 20260901213744 | 72 | 323 | 4.3 | 9.6 | 0.00 | 0.00 | 0.00 | 53 | 1011.2 |
| 20260901213247 | 72 | 315 | 4.3 | 10.4 | 0.00 | 0.00 | 0.00 | 53 | 1011.2 |
| 20260901212744 | 73 | 306 | 4.3 | 10.4 | 0.00 | 0.00 | 0.00 | 53 | 1011.2 |
| 20260901212245 | 72 | 315 | 4.3 | 9.6 | 0.00 | 0.00 | 0.00 | 54 | 1011.2 |
| 20260901211745 | 73 | 309 | 4.3 | 9.6 | 0.00 | 0.00 | 0.00 | 53 | 1011.2 |
| 20260901211242 | 73 | 340 | 4.3 | 9.6 | 0.00 | 0.00 | 0.00 | 54 | 1011.2 |
| 20260901210741 | 73 | 312 | 4.3 | 9.6 | 0.00 | 0.00 | 0.00 | 54 | 1011.2 |
| 20260901210238 | 73 | 335 | 4.3 | 9.6 | 0.00 | 0.00 | 0.00 | 54 | 1011.2 |
| 20260901205737 | 73 | 302 | 4.3 | 11.3 | 0.00 | 0.00 | 0.00 | 53 | 1011.2 |
| 20260901204734 | 73 | 312 | 4.3 | 9.6 | 0.00 | 0.00 | 0.00 | 53 | 1011.2 |
| 20260901203731 | 74 | 329 | 4.3 | 10.4 | 0.00 | 0.00 | 0.00 | 52 | 1011.4 |
| 20260901203231 | 74 | 317 | 3.5 | 8.7 | 0.00 | 0.00 | 0.00 | 53 | 1011.4 |
| 20260901202730 | 75 | 350 | 3.5 | 7.8 | 0.00 | 0.00 | 0.00 | 53 | 1011.4 |
| 20260901202228 | 74 | 306 | 3.5 | 7.0 | 0.00 | 0.00 | 0.00 | 54 | 1011.4 |
| 20260901201225 | 74 | 355 | 3.5 | 7.8 | 0.00 | 0.00 | 0.00 | 55 | 1011.4 |
| 20260901200725 | 74 | 328 | 3.5 | 7.0 | 0.00 | 0.00 | 0.00 | 54 | 1011.4 |
| 20260901200221 | 74 | 323 | 3.5 | 7.0 | 0.00 | 0.00 | 0.00 | 54 | 1011.4 |
| 20260901195219 | 75 | 282 | 2.6 | 8.7 | 0.00 | 0.00 | 0.00 | 53 | 1011.5 |
| 20260901194719 | 75 | 331 | 2.6 | 8.7 | 0.00 | 0.00 | 0.00 | 53 | 1011.5 |
| 20260901194217 | 75 | 348 | 2.6 | 8.7 | 0.00 | 0.00 | 0.00 | 54 | 1011.7 |
| 20260901193715 | 74 | 330 | 2.6 | 7.0 | 0.00 | 0.00 | 0.00 | 55 | 1011.7 |
| 20260901193211 | 74 | 322 | 2.6 | 7.0 | 0.00 | 0.00 | 0.00 | 54 | 1011.7 |
| 20260901192711 | 74 | 317 | 3.5 | 8.7 | 0.00 | 0.00 | 0.00 | 53 | 1011.8 |
| 20260901192213 | 74 | 308 | 3.5 | 8.7 | 0.00 | 0.00 | 0.00 | 53 | 1011.8 |
| 20260901191711 | 74 | 327 | 2.6 | 6.1 | 0.00 | 0.00 | 0.00 | 52 | 1011.8 |
| 20260901190708 | 73 | 344 | 2.6 | 6.1 | 0.00 | 0.00 | 0.00 | 54 | 1011.7 |
| 20260901190213 | 73 | 314 | 2.6 | 5.2 | 0.00 | 0.00 | 0.00 | 54 | 1011.7 |
| 20260901185706 | 73 | 348 | 2.6 | 7.8 | 0.00 | 0.00 | 0.00 | 53 | 1011.7 |
| 20260901185200 | 72 | 347 | 2.6 | 7.8 | 0.00 | 0.00 | 0.00 | 55 | 1011.7 |
| 20260901184659 | 73 | 321 | 2.6 | 6.1 | 0.00 | 0.00 | 0.00 | 54 | 1011.7 |
| 20260901184205 | 72 | 318 | 2.6 | 8.7 | 0.00 | 0.00 | 0.00 | 53 | 1011.7 |
| 20260901183659 | 72 | 290 | 2.6 | 8.7 | 0.00 | 0.00 | 0.00 | 55 | 1011.7 |
| 20260901183155 | 71 | 340 | 2.6 | 6.1 | 0.00 | 0.00 | 0.00 | 55 | 1011.7 |
| 20260901182654 | 71 | 306 | 2.6 | 6.1 | 0.00 | 0.00 | 0.00 | 57 | 1011.8 |
| 20260901182151 | 70 | 323 | 2.6 | 7.0 | 0.00 | 0.00 | 0.00 | 56 | 1011.8 |
| 20260901181649 | 70 | 307 | 3.5 | 7.0 | 0.00 | 0.00 | 0.00 | 57 | 1011.8 |
| 20260901181149 | 70 | 342 | 3.5 | 7.0 | 0.00 | 0.00 | 0.00 | 58 | 1011.8 |
| 20260901180648 | 70 | 315 | 2.6 | 6.1 | 0.00 | 0.00 | 0.00 | 59 | 1011.8 |
| 20260901180149 | 71 | 313 | 3.5 | 6.1 | 0.00 | 0.00 | 0.00 | 58 | 1011.8 |
| 20260901175146 | 70 | 42 | 3.5 | 9.6 | 0.00 | 0.00 | 0.00 | 61 | 1011.7 |
| 20260901174138 | 69 | 303 | 4.3 | 7.0 | 0.00 | 0.00 | 0.00 | 61 | 1011.7 |
| 20260901173638 | 70 | 311 | 4.3 | 8.7 | 0.00 | 0.00 | 0.00 | 58 | 1011.7 |
| 20260901173138 | 70 | 313 | 3.5 | 8.7 | 0.00 | 0.00 | 0.00 | 58 | 1011.7 |
| 20260901172134 | 72 | 324 | 1.7 | 6.1 | 0.00 | 0.00 | 0.00 | 57 | 1011.3 |
| 20260901171634 | 72 | 351 | 2.6 | 6.1 | 0.00 | 0.00 | 0.00 | 60 | 1011.3 |
| 20260901171135 | 71 | 19 | 2.6 | 6.1 | 0.00 | 0.00 | 0.00 | 60 | 1011.5 |
| 20260901170631 | 71 | 338 | 2.6 | 6.1 | 0.00 | 0.00 | 0.00 | 61 | 1011.5 |
| 20260901170129 | 70 | 344 | 1.7 | 6.1 | 0.00 | 0.00 | 0.00 | 62 | 1011.5 |
| 20260901165628 | 70 | 355 | 1.7 | 5.2 | 0.00 | 0.00 | 0.00 | 62 | 1011.3 |
| 20260901165127 | 69 | 335 | 1.7 | 6.1 | 0.00 | 0.00 | 0.00 | 64 | 1011.3 |
| 20260901164625 | 69 | 335 | 1.7 | 6.1 | 0.00 | 0.00 | 0.00 | 63 | 1011.3 |
| 20260901163623 | 69 | 330 | 0.9 | 4.3 | 0.00 | 0.00 | 0.00 | 65 | 1011.3 |
| 20260901163121 | 68 | 42 | 0.9 | 6.1 | 0.00 | 0.00 | 0.00 | 68 | 1011.3 |
| 20260901162619 | 67 | 42 | 0.9 | 6.1 | 0.00 | 0.00 | 0.00 | 68 | 1011.3 |
| 20260901161618 | 66 | 92 | 0.9 | 5.2 | 0.00 | 0.00 | 0.00 | 72 | 1011.3 |
| 20260901161114 | 66 | 92 | 0.9 | 5.2 | 0.00 | 0.00 | 0.00 | 71 | 1011.3 |
| 20260901155108 | 66 | 246 | 0.9 | 1.7 | 0.00 | 0.00 | 0.00 | 74 | 1011.2 |
| 20260901154107 | 65 | 270 | 0.0 | 0.0 | 0.00 | 0.00 | 0.00 | 75 | 1011.2 |
| 20260901153602 | 64 | 270 | 0.0 | 0.0 | 0.00 | 0.00 | 0.00 | 75 | 1011.2 |
| 20260901153059 | 64 | 270 | 0.0 | 0.0 | 0.00 | 0.00 | 0.00 | 78 | 1011.2 |
| 20260901152557 | 64 | 270 | 0.0 | 0.0 | 0.00 | 0.00 | 0.00 | 77 | 1011.1 |
| 20260901151556 | 62 | 270 | 0.0 | 0.0 | 0.00 | 0.00 | 0.00 | 81 | 1011.1 |
| 20260901150048 | 61 | 270 | 0.0 | 0.0 | 0.00 | 0.00 | 0.00 | 85 | 1011.1 |
| 20260901145045 | 59 | 270 | 0.0 | 0.0 | 0.00 | 0.00 | 0.00 | 89 | 1011.0 |
| 20260901144542 | 58 | 270 | 0.0 | 0.0 | 0.00 | 0.00 | 0.00 | 89 | 1011.0 |
| 20260901143533 | 56 | 270 | 0.0 | 0.0 | 0.00 | 0.00 | 0.00 | 91 | 1010.8 |
| 20260901143029 | 56 | 270 | 0.0 | 0.0 | 0.00 | 0.00 | 0.00 | 92 | 1010.7 |
| 20260901142524 | 55 | 270 | 0.0 | 0.0 | 0.00 | 0.00 | 0.00 | 91 | 1010.6 |
| 20260901142021 | 55 | 270 | 0.0 | 0.0 | 0.00 | 0.00 | 0.00 | 91 | 1010.6 |
| 20260901141518 | 54 | 270 | 0.0 | 0.0 | 0.00 | 0.00 | 0.00 | 91 | 1010.6 |
| 20260901141011 | 54 | 270 | 0.0 | 0.0 | 0.00 | 0.00 | 0.00 | 91 | 1010.6 |
| 20260901140507 | 54 | 270 | 0.0 | 0.0 | 0.00 | 0.00 | 0.00 | 91 | 1010.6 |
| 20260901140006 | 54 | 270 | 0.0 | 0.0 | 0.00 | 0.00 | 0.00 | 90 | 1010.6 |
| 20260901135001 | 54 | 270 | 0.0 | 0.0 | 0.00 | 0.00 | 0.00 | 90 | 1010.5 |
| 20260901134501 | 55 | 270 | 0.0 | 0.0 | 0.00 | 0.00 | 0.00 | 90 | 1010.5 |
| 20260901133959 | 55 | 270 | 0.0 | 0.0 | 0.00 | 0.00 | 0.00 | 90 | 1010.5 |
| 20260901133000 | 55 | 270 | 0.0 | 0.0 | 0.00 | 0.00 | 0.00 | 90 | 1010.5 |
| 20260901131950 | 55 | 270 | 0.0 | 0.0 | 0.00 | 0.00 | 0.00 | 90 | 1010.5 |
| 20260901131447 | 55 | 270 | 0.0 | 0.0 | 0.00 | 0.00 | 0.00 | 90 | 1010.5 |
| 20260901130939 | 55 | 270 | 0.0 | 0.0 | 0.00 | 0.00 | 0.00 | 90 | 1010.5 |
| 20260901125936 | 55 | 270 | 0.0 | 0.0 | 0.00 | 0.00 | 0.00 | 90 | 1010.5 |
| 20260901125435 | 55 | 270 | 0.0 | 0.0 | 0.00 | 0.00 | 0.00 | 90 | 1010.5 |
| 20260901124931 | 55 | 270 | 0.0 | 0.0 | 0.00 | 0.00 | 0.00 | 90 | 1010.5 |
| 20260901123426 | 56 | 270 | 0.0 | 0.0 | 0.00 | 0.00 | 0.00 | 90 | 1010.4 |
| 20260901122920 | 56 | 270 | 0.0 | 0.0 | 0.00 | 0.00 | 0.00 | 90 | 1010.4 |
| 20260901122419 | 56 | 270 | 0.0 | 0.0 | 0.00 | 0.00 | 0.00 | 90 | 1010.2 |
| 20260901121915 | 56 | 270 | 0.0 | 0.0 | 0.00 | 0.00 | 0.00 | 90 | 1010.2 |
| 20260901121415 | 56 | 270 | 0.0 | 0.0 | 0.00 | 0.00 | 0.00 | 90 | 1010.2 |
| 20260901120407 | 56 | 270 | 0.0 | 0.0 | 0.00 | 0.00 | 0.00 | 89 | 1010.0 |
| 20260901115906 | 56 | 270 | 0.0 | 2.6 | 0.00 | 0.00 | 0.00 | 89 | 1010.0 |
| 20260901114855 | 56 | 270 | 0.0 | 0.0 | 0.00 | 0.00 | 0.00 | 89 | 1010.0 |
| 20260901113859 | 56 | 270 | 0.0 | 0.0 | 0.00 | 0.00 | 0.00 | 88 | 1010.1 |
| 20260901113356 | 57 | 270 | 0.0 | 0.0 | 0.00 | 0.00 | 0.00 | 88 | 1010.1 |
| 20260901112849 | 57 | 270 | 0.0 | 0.0 | 0.00 | 0.00 | 0.00 | 88 | 1010.1 |
| 20260901112348 | 57 | 270 | 0.0 | 0.0 | 0.00 | 0.00 | 0.00 | 88 | 1010.1 |
| 20260901111847 | 57 | 270 | 0.0 | 0.0 | 0.00 | 0.00 | 0.00 | 88 | 1010.1 |
| 20260901111346 | 57 | 270 | 0.0 | 0.0 | 0.00 | 0.00 | 0.00 | 88 | 1010.1 |
| 20260901110839 | 57 | 270 | 0.0 | 0.0 | 0.00 | 0.00 | 0.00 | 88 | 1010.1 |
| 20260901110342 | 57 | 270 | 0.0 | 0.0 | 0.00 | 0.00 | 0.00 | 88 | 1010.1 |
| 20260901105834 | 57 | 270 | 0.0 | 0.0 | 0.00 | 0.00 | 0.00 | 88 | 1010.1 |
| 20260901105338 | 57 | 270 | 0.0 | 0.0 | 0.00 | 0.00 | 0.00 | 88 | 1010.1 |
| 20260901104335 | 57 | 270 | 0.0 | 0.0 | 0.00 | 0.00 | 0.00 | 88 | 1010.1 |
| 20260901103329 | 57 | 270 | 0.0 | 0.0 | 0.00 | 0.00 | 0.00 | 88 | 1010.1 |
| 20260901102829 | 57 | 270 | 0.0 | 0.0 | 0.00 | 0.00 | 0.00 | 88 | 1010.0 |
| 20260901102329 | 56 | 270 | 0.0 | 0.0 | 0.00 | 0.00 | 0.00 | 88 | 1010.0 |
| 20260901101828 | 57 | 270 | 0.0 | 0.0 | 0.00 | 0.00 | 0.00 | 89 | 1010.0 |
| 20260901101331 | 57 | 270 | 0.0 | 0.0 | 0.00 | 0.00 | 0.00 | 89 | 1010.0 |
| 20260901100826 | 57 | 270 | 0.0 | 0.0 | 0.00 | 0.00 | 0.00 | 89 | 1010.0 |
| 20260901100326 | 56 | 270 | 0.0 | 0.0 | 0.00 | 0.00 | 0.00 | 89 | 1010.0 |
| 20260901095820 | 56 | 270 | 0.0 | 0.0 | 0.00 | 0.00 | 0.00 | 89 | 1010.1 |
| 20260901094820 | 56 | 270 | 0.0 | 0.0 | 0.00 | 0.00 | 0.00 | 90 | 1010.1 |
| 20260901094314 | 56 | 270 | 0.0 | 0.0 | 0.00 | 0.00 | 0.00 | 90 | 1010.1 |
| 20260901093814 | 56 | 270 | 0.0 | 0.0 | 0.00 | 0.00 | 0.00 | 90 | 1010.1 |
| 20260901093311 | 56 | 270 | 0.0 | 0.0 | 0.00 | 0.00 | 0.00 | 90 | 1010.1 |
| 20260901092815 | 56 | 270 | 0.0 | 0.0 | 0.00 | 0.00 | 0.00 | 90 | 1010.1 |
| 20260901092308 | 56 | 270 | 0.0 | 0.0 | 0.00 | 0.00 | 0.00 | 90 | 1010.1 |
| 20260901091809 | 56 | 270 | 0.0 | 0.0 | 0.00 | 0.00 | 0.00 | 91 | 1010.1 |
| 20260901091312 | 56 | 270 | 0.0 | 0.0 | 0.00 | 0.00 | 0.00 | 91 | 1010.0 |
| 20260901090810 | 56 | 270 | 0.0 | 0.0 | 0.00 | 0.00 | 0.00 | 91 | 1010.0 |
| 20260901090308 | 56 | 270 | 0.0 | 0.0 | 0.00 | 0.00 | 0.00 | 91 | 1010.0 |
| 20260901084801 | 56 | 270 | 0.0 | 0.0 | 0.00 | 0.00 | 0.00 | 91 | 1010.0 |
| 20260901084300 | 56 | 270 | 0.0 | 0.0 | 0.00 | 0.00 | 0.00 | 91 | 1010.0 |
| 20260901083759 | 56 | 270 | 0.0 | 0.0 | 0.00 | 0.00 | 0.00 | 91 | 1010.0 |
| 20260901082800 | 55 | 270 | 0.0 | 0.0 | 0.00 | 0.00 | 0.00 | 90 | 1010.0 |
| 20260901081750 | 55 | 270 | 0.0 | 0.0 | 0.00 | 0.00 | 0.00 | 90 | 1010.0 |
| 20260901081249 | 55 | 270 | 0.0 | 0.0 | 0.00 | 0.00 | 0.00 | 90 | 1009.8 |
| 20260901080742 | 55 | 270 | 0.0 | 0.0 | 0.00 | 0.00 | 0.00 | 90 | 1009.8 |
| 20260901080236 | 55 | 270 | 0.0 | 0.0 | 0.00 | 0.00 | 0.00 | 89 | 1009.8 |
| 20260901075732 | 55 | 270 | 0.0 | 0.0 | 0.00 | 0.00 | 0.00 | 89 | 1009.7 |
| 20260901075224 | 55 | 270 | 0.0 | 0.0 | 0.00 | 0.00 | 0.00 | 89 | 1009.7 |
| 20260901074724 | 56 | 270 | 0.0 | 0.0 | 0.00 | 0.00 | 0.00 | 89 | 1009.7 |
| 20260901074222 | 56 | 270 | 0.0 | 0.0 | 0.00 | 0.00 | 0.00 | 89 | 1009.8 |
| 20260901073722 | 56 | 270 | 0.0 | 0.0 | 0.00 | 0.00 | 0.00 | 88 | 1009.8 |
| 20260901073219 | 56 | 270 | 0.0 | 0.0 | 0.00 | 0.00 | 0.00 | 88 | 1009.8 |
| 20260901072714 | 56 | 270 | 0.0 | 0.0 | 0.00 | 0.00 | 0.00 | 88 | 1009.9 |
| 20260901072215 | 56 | 270 | 0.0 | 0.0 | 0.00 | 0.00 | 0.00 | 88 | 1009.9 |
| 20260901071204 | 57 | 270 | 0.0 | 0.0 | 0.00 | 0.00 | 0.00 | 88 | 1010.0 |
| 20260901070706 | 57 | 270 | 0.0 | 0.0 | 0.00 | 0.00 | 0.00 | 88 | 1010.0 |
| 20260901070204 | 57 | 270 | 0.0 | 0.0 | 0.00 | 0.00 | 0.00 | 88 | 1010.0 |
| 20260901065206 | 57 | 270 | 0.0 | 0.0 | 0.00 | 0.00 | 0.00 | 88 | 1010.1 |
| 20260901064201 | 57 | 270 | 0.0 | 0.0 | 0.00 | 0.00 | 0.00 | 89 | 1010.1 |
| 20260901063657 | 57 | 270 | 0.0 | 0.0 | 0.00 | 0.00 | 0.00 | 89 | 1010.1 |
| 20260901063157 | 57 | 270 | 0.0 | 0.0 | 0.00 | 0.00 | 0.00 | 89 | 1010.1 |
| 20260901062656 | 57 | 270 | 0.0 | 0.0 | 0.00 | 0.00 | 0.00 | 88 | 1010.1 |
| 20260901062151 | 57 | 270 | 0.0 | 0.0 | 0.00 | 0.00 | 0.00 | 88 | 1010.1 |
| 20260901055650 | 56 | 270 | 0.9 | 1.7 | 0.00 | 0.00 | 0.00 | 89 | 1009.9 |
| 20260901055147 | 56 | 270 | 0.0 | 1.7 | 0.00 | 0.00 | 0.00 | 88 | 1009.9 |
| 20260901054645 | 56 | 270 | 0.9 | 1.7 | 0.00 | 0.00 | 0.00 | 88 | 1009.9 |
| 20260901054148 | 56 | 270 | 0.9 | 2.6 | 0.00 | 0.00 | 0.00 | 88 | 1009.7 |
| 20260901053141 | 56 | 270 | 0.0 | 0.0 | 0.00 | 0.00 | 0.00 | 87 | 1009.7 |
| 20260901052640 | 56 | 270 | 0.0 | 0.0 | 0.00 | 0.00 | 0.00 | 87 | 1009.6 |
| 20260901052140 | 56 | 270 | 0.0 | 0.0 | 0.00 | 0.00 | 0.00 | 87 | 1009.6 |
| 20260901051639 | 57 | 270 | 0.0 | 0.0 | 0.00 | 0.00 | 0.00 | 86 | 1009.6 |
| 20260901051138 | 57 | 270 | 0.0 | 0.0 | 0.00 | 0.00 | 0.00 | 86 | 1009.7 |
| 20260901050630 | 57 | 270 | 0.0 | 0.0 | 0.00 | 0.00 | 0.00 | 86 | 1009.7 |
| 20260901050127 | 57 | 270 | 0.0 | 0.0 | 0.00 | 0.00 | 0.00 | 86 | 1009.7 |
| 20260901045619 | 57 | 270 | 0.0 | 0.0 | 0.00 | 0.00 | 0.00 | 86 | 1009.6 |
| 20260901045123 | 57 | 270 | 0.0 | 0.9 | 0.00 | 0.00 | 0.00 | 85 | 1009.6 |
| 20260901043614 | 58 | 270 | 0.0 | 0.9 | 0.00 | 0.00 | 0.00 | 84 | 1009.5 |
| 20260901043112 | 58 | 270 | 0.0 | 0.0 | 0.00 | 0.00 | 0.00 | 84 | 1009.5 |
| 20260901042608 | 58 | 270 | 0.0 | 0.9 | 0.00 | 0.00 | 0.00 | 83 | 1009.5 |
| 20260901042112 | 59 | 270 | 0.0 | 1.7 | 0.00 | 0.00 | 0.00 | 83 | 1009.5 |
| 20260901041105 | 59 | 270 | 0.9 | 6.1 | 0.00 | 0.00 | 0.00 | 83 | 1009.6 |
| 20260901040603 | 59 | 267 | 0.9 | 6.1 | 0.00 | 0.00 | 0.00 | 83 | 1009.6 |
| 20260901040057 | 59 | 273 | 1.7 | 5.2 | 0.00 | 0.00 | 0.00 | 83 | 1009.6 |
| 20260901035554 | 59 | 273 | 2.6 | 6.1 | 0.00 | 0.00 | 0.00 | 82 | 1009.5 |
| 20260901035056 | 59 | 275 | 1.7 | 6.1 | 0.00 | 0.00 | 0.00 | 82 | 1009.5 |
| 20260901034050 | 59 | 270 | 2.6 | 7.0 | 0.00 | 0.00 | 0.00 | 82 | 1009.2 |
| 20260901033043 | 59 | 285 | 2.6 | 6.1 | 0.00 | 0.00 | 0.00 | 82 | 1009.2 |
| 20260901032541 | 59 | 265 | 1.7 | 4.3 | 0.00 | 0.00 | 0.00 | 82 | 1008.7 |
| 20260901032041 | 59 | 259 | 1.7 | 4.3 | 0.00 | 0.00 | 0.00 | 82 | 1008.7 |
| 20260901031537 | 59 | 277 | 1.7 | 4.3 | 0.00 | 0.00 | 0.00 | 81 | 1008.7 |
| 20260901031037 | 59 | 275 | 1.7 | 6.1 | 0.00 | 0.00 | 0.00 | 81 | 1008.5 |
| 20260901030534 | 60 | 275 | 1.7 | 6.1 | 0.00 | 0.00 | 0.00 | 81 | 1008.5 |